| time (UTC) | temp F | wind direction | speed knots | gust knots | rain 1hr in | rain 24hr in | rain mn in | humidity % | barometer mb |
| 20260506140119 | 0 | 255 | 0.0 | 0.0 | 0.00 | 0.00 | 0.00 | 1022.6 | |
| 20260506135615 | 0 | 243 | 0.0 | 0.0 | 0.00 | 0.00 | 0.00 | 1022.8 | |
| 20260506135112 | 0 | 243 | 0.0 | 0.0 | 0.00 | 0.00 | 0.00 | 1022.6 | |
| 20260506134608 | 0 | 243 | 0.0 | 0.0 | 0.00 | 0.00 | 0.00 | 1022.5 | |
| 20260506134104 | 0 | 242 | 0.0 | 0.0 | 0.00 | 0.00 | 0.00 | 1022.4 | |
| 20260506133602 | 0 | 247 | 0.0 | 0.0 | 0.00 | 0.00 | 0.00 | 1022.2 | |
| 20260506133058 | 0 | 247 | 0.0 | 0.0 | 0.00 | 0.00 | 0.00 | 1022.4 | |
| 20260506132556 | 0 | 247 | 0.0 | 0.0 | 0.00 | 0.00 | 0.00 | 1022.3 | |
| 20260506132053 | 0 | 244 | 0.0 | 0.0 | 0.00 | 0.00 | 0.00 | 1022.3 | |
| 20260506131550 | 0 | 245 | 0.0 | 0.0 | 0.00 | 0.00 | 0.00 | 1022.3 | |
| 20260506131046 | 0 | 241 | 0.0 | 0.0 | 0.00 | 0.00 | 0.00 | 1022.4 | |
| 20260506130543 | 0 | 241 | 0.0 | 0.0 | 0.00 | 0.00 | 0.00 | 1022.2 | |
| 20260506130041 | 0 | 244 | 0.0 | 0.0 | 0.00 | 0.00 | 0.00 | 1022.3 | |
| 20260506125539 | 0 | 248 | 0.0 | 0.0 | 0.00 | 0.00 | 0.00 | 1022.2 | |
| 20260506125036 | 0 | 250 | 0.0 | 0.0 | 0.00 | 0.00 | 0.00 | 1022.4 | |
| 20260506124534 | 0 | 268 | 0.0 | 0.0 | 0.00 | 0.00 | 0.00 | 1022.2 | |
| 20260506124031 | 0 | 264 | 0.0 | 0.0 | 0.00 | 0.00 | 0.00 | 1022.1 | |
| 20260506123529 | 0 | 259 | 0.0 | 0.0 | 0.00 | 0.00 | 0.00 | 1022.2 | |
| 20260506123027 | 0 | 272 | 0.0 | 0.0 | 0.00 | 0.00 | 0.00 | 1021.8 | |
| 20260506122523 | 0 | 290 | 0.0 | 0.0 | 0.00 | 0.00 | 0.00 | 1022.3 | |
| 20260506122022 | 0 | 307 | 0.0 | 0.0 | 0.00 | 0.00 | 0.00 | 1022.2 | |
| 20260506121519 | 0 | 295 | 0.0 | 0.0 | 0.00 | 0.00 | 0.00 | 1022.2 | |
| 20260506121015 | 0 | 301 | 0.0 | 0.0 | 0.00 | 0.00 | 0.00 | 1022.2 | |
| 20260506120513 | 0 | 295 | 0.0 | 0.0 | 0.00 | 0.00 | 0.00 | 1021.8 | |
| 20260506120010 | 0 | 295 | 0.0 | 0.0 | 0.00 | 0.00 | 0.00 | 1021.7 | |
| 20260506115508 | 0 | 296 | 0.0 | 0.0 | 0.00 | 0.00 | 0.00 | 1021.7 | |
| 20260506115006 | 0 | 253 | 0.0 | 0.0 | 0.00 | 0.00 | 0.00 | 1021.6 | |
| 20260506114503 | 0 | 234 | 0.0 | 0.0 | 0.00 | 0.00 | 0.00 | 1022.1 | |
| 20260506114002 | 0 | 234 | 0.0 | 0.0 | 0.00 | 0.00 | 0.00 | 1021.6 | |
| 20260506113459 | 0 | 234 | 0.0 | 0.0 | 0.00 | 0.00 | 0.00 | 1021.8 | |
| 20260506112955 | 0 | 233 | 0.0 | 0.0 | 0.00 | 0.00 | 0.00 | 1021.7 | |
| 20260506112453 | 0 | 234 | 0.0 | 0.0 | 0.00 | 0.00 | 0.00 | 1021.4 | |
| 20260506111950 | 0 | 233 | 0.0 | 0.0 | 0.00 | 0.00 | 0.00 | 1021.5 | |
| 20260506111448 | 0 | 239 | 0.0 | 0.0 | 0.00 | 0.00 | 0.00 | 1021.3 | |
| 20260506110945 | 0 | 239 | 0.0 | 0.0 | 0.00 | 0.00 | 0.00 | 1021.6 | |
| 20260506110443 | 0 | 240 | 0.0 | 0.0 | 0.00 | 0.00 | 0.00 | 1021.7 | |
| 20260506105939 | 0 | 240 | 0.0 | 0.0 | 0.00 | 0.00 | 0.00 | 1021.4 | |
| 20260506105436 | 0 | 239 | 0.0 | 0.0 | 0.00 | 0.00 | 0.00 | 1021.7 | |
| 20260506104933 | 0 | 239 | 0.0 | 0.0 | 0.00 | 0.00 | 0.00 | 1021.3 | |
| 20260506104431 | 0 | 238 | 0.0 | 0.0 | 0.00 | 0.00 | 0.00 | 1021.5 | |
| 20260506103929 | 0 | 244 | 0.0 | 0.0 | 0.00 | 0.00 | 0.00 | 1021.4 | |
| 20260506103426 | 0 | 252 | 0.0 | 0.0 | 0.00 | 0.00 | 0.00 | 1021.3 | |
| 20260506102923 | 0 | 255 | 0.0 | 0.0 | 0.00 | 0.00 | 0.00 | 1021.2 | |
| 20260506102421 | 0 | 249 | 0.0 | 0.0 | 0.00 | 0.00 | 0.00 | 1021.1 | |
| 20260506101918 | 0 | 255 | 0.0 | 0.0 | 0.00 | 0.00 | 0.00 | 1021.1 | |
| 20260506101414 | 0 | 256 | 0.0 | 0.0 | 0.00 | 0.00 | 0.00 | 1021.1 | |
| 20260506100911 | 0 | 259 | 0.0 | 0.0 | 0.00 | 0.00 | 0.00 | 1021.0 | |
| 20260506100410 | 0 | 248 | 0.0 | 0.0 | 0.00 | 0.00 | 0.00 | 1021.1 | |
| 20260506095908 | 0 | 280 | 0.0 | 0.0 | 0.00 | 0.00 | 0.00 | 1020.8 | |
| 20260506095406 | 0 | 280 | 0.0 | 0.0 | 0.00 | 0.00 | 0.00 | 1020.7 | |
| 20260506094902 | 0 | 280 | 0.0 | 0.0 | 0.00 | 0.00 | 0.00 | 1020.8 | |
| 20260506094401 | 0 | 279 | 0.0 | 0.0 | 0.00 | 0.00 | 0.00 | 1020.7 | |
| 20260506093858 | 0 | 279 | 0.0 | 0.0 | 0.00 | 0.00 | 0.00 | 1020.8 | |
| 20260506093355 | 0 | 279 | 0.0 | 0.0 | 0.00 | 0.00 | 0.00 | 1020.6 | |
| 20260506092853 | 0 | 280 | 0.0 | 0.0 | 0.00 | 0.00 | 0.00 | 1020.6 | |
| 20260506092351 | 0 | 282 | 0.0 | 0.0 | 0.00 | 0.00 | 0.00 | 1020.8 | |
| 20260506091847 | 0 | 275 | 0.0 | 0.0 | 0.00 | 0.00 | 0.00 | 1020.8 | |
| 20260506091345 | 0 | 273 | 0.0 | 0.0 | 0.00 | 0.00 | 0.00 | 1020.7 | |
| 20260506090842 | 0 | 254 | 0.0 | 0.0 | 0.00 | 0.00 | 0.00 | 1020.7 | |
| 20260506090340 | 0 | 254 | 0.0 | 0.0 | 0.00 | 0.00 | 0.00 | 1020.6 | |
| 20260506085836 | 0 | 251 | 0.0 | 0.0 | 0.00 | 0.00 | 0.00 | 1020.7 | |
| 20260506085332 | 0 | 242 | 0.0 | 0.0 | 0.00 | 0.00 | 0.00 | 1020.8 | |
| 20260506084829 | 0 | 241 | 0.0 | 0.0 | 0.00 | 0.00 | 0.00 | 1021.0 | |
| 20260506084326 | 0 | 240 | 0.0 | 0.0 | 0.00 | 0.00 | 0.00 | 1020.5 | |
| 20260506083822 | 0 | 250 | 0.0 | 0.0 | 0.00 | 0.00 | 0.00 | 1020.5 | |
| 20260506083320 | 0 | 265 | 0.0 | 0.0 | 0.00 | 0.00 | 0.00 | 1020.6 | |
| 20260506082818 | 0 | 295 | 0.0 | 0.0 | 0.00 | 0.00 | 0.00 | 1020.4 | |
| 20260506082314 | 0 | 293 | 0.0 | 0.0 | 0.00 | 0.00 | 0.00 | 1020.4 | |
| 20260506081810 | 0 | 299 | 0.0 | 0.0 | 0.00 | 0.00 | 0.00 | 1020.3 | |
| 20260506081308 | 0 | 274 | 0.0 | 0.0 | 0.00 | 0.00 | 0.00 | 1020.3 | |
| 20260506080806 | 0 | 285 | 0.0 | 0.0 | 0.00 | 0.00 | 0.00 | 1020.2 | |
| 20260506080302 | 0 | 278 | 0.0 | 0.0 | 0.00 | 0.00 | 0.00 | 1020.2 | |
| 20260506073246 | 0 | 286 | 0.0 | 0.0 | 0.00 | 0.00 | 0.00 | 1019.7 | |
| 20260506072743 | 0 | 286 | 0.0 | 0.0 | 0.00 | 0.00 | 0.00 | 1019.9 | |
| 20260506072240 | 0 | 244 | 0.0 | 0.0 | 0.00 | 0.00 | 0.00 | 1019.8 | |
| 20260506071738 | 0 | 239 | 0.0 | 0.0 | 0.00 | 0.00 | 0.00 | 1019.8 | |
| 20260506071236 | 0 | 239 | 0.0 | 0.0 | 0.00 | 0.00 | 0.00 | 1020.0 | |
| 20260506070732 | 0 | 235 | 0.0 | 0.0 | 0.00 | 0.00 | 0.00 | 1019.7 | |
| 20260506070229 | 0 | 323 | 0.0 | 0.0 | 0.00 | 0.00 | 0.00 | 1019.7 | |
| 20260506062206 | 0 | 334 | 0.0 | 0.0 | 0.00 | 0.00 | 0.00 | 1019.8 | |
| 20260506061702 | 0 | 334 | 0.0 | 0.0 | 0.00 | 0.00 | 0.00 | 1019.7 | |
| 20260506061200 | 0 | 333 | 0.0 | 0.0 | 0.00 | 0.00 | 0.00 | 1019.6 | |
| 20260506060658 | 0 | 337 | 0.0 | 0.0 | 0.00 | 0.00 | 0.00 | 1019.6 | |
| 20260506060155 | 0 | 342 | 0.9 | 0.9 | 0.00 | 0.00 | 0.00 | 1019.9 | |
| 20260506051127 | 0 | 306 | 0.9 | 0.9 | 0.00 | 0.00 | 0.00 | 1019.6 | |
| 20260506050625 | 0 | 323 | 0.9 | 0.9 | 0.00 | 0.00 | 0.00 | 1019.6 | |
| 20260506050122 | 0 | 291 | 0.0 | 0.0 | 0.00 | 0.00 | 0.00 | 1019.5 | |
| 20260506045115 | 0 | 234 | 0.9 | 0.9 | 0.00 | 0.00 | 0.00 | 1019.3 | |
| 20260506044613 | 0 | 310 | 0.9 | 0.9 | 0.00 | 0.00 | 0.00 | 1019.5 | |
| 20260506044110 | 0 | 282 | 0.0 | 0.9 | 0.00 | 0.00 | 0.00 | 1019.2 | |
| 20260506043607 | 0 | 278 | 0.9 | 1.7 | 0.00 | 0.00 | 0.00 | 1019.3 | |
| 20260506043105 | 0 | 243 | 0.0 | 0.0 | 0.00 | 0.00 | 0.00 | 1019.2 | |
| 20260506042604 | 0 | 250 | 1.7 | 1.7 | 0.00 | 0.00 | 0.00 | 1019.1 | |
| 20260506042101 | 0 | 240 | 0.9 | 0.9 | 0.00 | 0.00 | 0.00 | 1019.1 | |
| 20260506041600 | 0 | 238 | 1.7 | 1.7 | 0.00 | 0.00 | 0.00 | 1018.8 | |
| 20260506041056 | 0 | 241 | 0.9 | 0.9 | 0.00 | 0.00 | 0.00 | 1019.2 | |
| 20260506040554 | 0 | 246 | 1.7 | 1.7 | 0.00 | 0.00 | 0.00 | 1018.9 | |
| 20260506040050 | 0 | 245 | 1.7 | 1.7 | 0.00 | 0.00 | 0.00 | 1018.7 | |
| 20260506035547 | 0 | 244 | 1.7 | 1.7 | 0.00 | 0.00 | 0.00 | 1018.9 | |
| 20260506035044 | 0 | 217 | 0.9 | 0.9 | 0.00 | 0.00 | 0.00 | 1018.7 | |
| 20260506034541 | 0 | 255 | 0.9 | 1.7 | 0.00 | 0.00 | 0.00 | 1019.1 | |
| 20260506034038 | 0 | 229 | 0.9 | 1.7 | 0.00 | 0.00 | 0.00 | 1018.7 | |
| 20260506033536 | 0 | 235 | 0.0 | 1.7 | 0.00 | 0.00 | 0.00 | 1018.6 | |
| 20260506033032 | 0 | 241 | 1.7 | 1.7 | 0.00 | 0.00 | 0.00 | 1018.6 | |
| 20260506032530 | 0 | 225 | 1.7 | 1.7 | 0.00 | 0.00 | 0.00 | 1018.5 | |
| 20260506032026 | 0 | 231 | 0.9 | 0.9 | 0.00 | 0.00 | 0.00 | 1018.4 | |
| 20260506031524 | 0 | 246 | 1.7 | 1.7 | 0.00 | 0.00 | 0.00 | 1018.7 | |
| 20260506031021 | 0 | 234 | 1.7 | 1.7 | 0.00 | 0.00 | 0.00 | 1018.4 | |
| 20260506030519 | 0 | 229 | 0.9 | 0.9 | 0.00 | 0.00 | 0.00 | 1018.1 | |
| 20260506030016 | 0 | 264 | 0.0 | 1.7 | 0.00 | 0.00 | 0.00 | 1018.2 | |
| 20260506025513 | 0 | 246 | 0.9 | 1.7 | 0.00 | 0.00 | 0.00 | 1018.3 | |
| 20260506025009 | 0 | 239 | 0.9 | 1.7 | 0.00 | 0.00 | 0.00 | 1018.2 | |
| 20260506024506 | 0 | 228 | 0.9 | 0.9 | 0.00 | 0.00 | 0.00 | 1017.9 | |
| 20260506024001 | 0 | 238 | 0.9 | 1.7 | 0.00 | 0.00 | 0.00 | 1018.2 | |
| 20260506023458 | 0 | 277 | 0.9 | 1.7 | 0.00 | 0.00 | 0.00 | 1018.1 | |
| 20260506022955 | 0 | 240 | 0.9 | 1.7 | 0.00 | 0.00 | 0.00 | 1018.0 | |
| 20260506022453 | 0 | 237 | 0.0 | 0.9 | 0.00 | 0.00 | 0.00 | 1018.0 | |
| 20260506021951 | 0 | 236 | 0.9 | 0.9 | 0.00 | 0.00 | 0.00 | 1017.9 | |
| 20260506021448 | 0 | 246 | 0.0 | 0.9 | 0.00 | 0.00 | 0.00 | 1018.0 | |
| 20260506020945 | 0 | 260 | 0.0 | 0.0 | 0.00 | 0.00 | 0.00 | 1018.0 | |
| 20260506020442 | 0 | 263 | 0.9 | 1.7 | 0.00 | 0.00 | 0.00 | 1017.7 | |
| 20260506015939 | 0 | 275 | 0.0 | 0.9 | 0.00 | 0.00 | 0.00 | 1017.9 | |
| 20260506015437 | 0 | 262 | 0.0 | 0.0 | 0.00 | 0.00 | 0.00 | 1017.9 | |
| 20260506014934 | 0 | 254 | 0.9 | 0.9 | 0.00 | 0.00 | 0.00 | 1017.9 | |
| 20260506014431 | 0 | 269 | 0.9 | 0.9 | 0.00 | 0.00 | 0.00 | 1017.6 | |
| 20260506013927 | 0 | 240 | 0.0 | 0.0 | 0.00 | 0.00 | 0.00 | 1017.8 | |
| 20260506013425 | 0 | 240 | 0.9 | 1.7 | 0.00 | 0.00 | 0.00 | 1017.8 | |
| 20260506012921 | 0 | 233 | 0.0 | 0.9 | 0.00 | 0.00 | 0.00 | 1017.7 | |
| 20260506012418 | 0 | 250 | 0.0 | 0.9 | 0.00 | 0.00 | 0.00 | 1017.7 | |
| 20260506011915 | 0 | 234 | 0.9 | 1.7 | 0.00 | 0.00 | 0.00 | 1017.7 | |
| 20260506011412 | 0 | 222 | 0.9 | 0.9 | 0.00 | 0.00 | 0.00 | 1017.8 | |
| 20260506010909 | 0 | 254 | 0.0 | 0.0 | 0.00 | 0.00 | 0.00 | 1017.5 | |
| 20260506010408 | 0 | 241 | 0.0 | 0.0 | 0.00 | 0.00 | 0.00 | 1017.8 | |
| 20260506005904 | 0 | 258 | 0.0 | 0.9 | 0.00 | 0.00 | 0.00 | 1017.6 | |
| 20260506005401 | 0 | 234 | 0.0 | 0.0 | 0.00 | 0.00 | 0.00 | 1017.3 | |
| 20260506004856 | 0 | 303 | 0.0 | 0.9 | 0.00 | 0.00 | 0.00 | 1017.8 | |
| 20260506004355 | 0 | 240 | 0.0 | 0.0 | 0.00 | 0.00 | 0.00 | 1017.5 | |
| 20260506003850 | 0 | 280 | 0.0 | 0.0 | 0.00 | 0.00 | 0.00 | 1017.7 | |
| 20260506003347 | 0 | 265 | 0.0 | 0.9 | 0.00 | 0.00 | 0.00 | 1017.8 | |
| 20260506002843 | 0 | 240 | 0.0 | 0.0 | 0.00 | 0.00 | 0.00 | 1017.7 | |
| 20260506002340 | 0 | 257 | 0.0 | 0.0 | 0.00 | 0.00 | 0.00 | 1017.6 | |
| 20260506001835 | 0 | 271 | 0.0 | 0.0 | 0.00 | 0.00 | 0.00 | 1017.6 | |
| 20260506001333 | 0 | 258 | 0.0 | 0.0 | 0.00 | 0.00 | 0.00 | 1017.6 | |
| 20260506000829 | 0 | 252 | 0.0 | 0.0 | 0.00 | 0.00 | 0.00 | 1017.8 | |
| 20260506000329 | 0 | 241 | 0.0 | 0.9 | 0.00 | 0.00 | 0.00 | 1017.7 | |
| 20260505235824 | 0 | 253 | 0.0 | 0.0 | 0.00 | 0.00 | 0.00 | 1017.7 | |
| 20260505235321 | 0 | 251 | 0.0 | 0.9 | 0.00 | 0.00 | 0.00 | 1017.6 | |
| 20260505234818 | 0 | 282 | 0.0 | 0.0 | 0.00 | 0.00 | 0.00 | 1017.7 | |
| 20260505234316 | 0 | 276 | 0.0 | 0.0 | 0.00 | 0.00 | 0.00 | 1017.8 | |
| 20260505233813 | 0 | 235 | 0.0 | 0.0 | 0.00 | 0.00 | 0.00 | 1017.8 | |
| 20260505233311 | 0 | 300 | 0.0 | 0.0 | 0.00 | 0.00 | 0.00 | 1017.7 | |
| 20260505232808 | 0 | 250 | 0.0 | 0.0 | 0.00 | 0.00 | 0.00 | 1018.0 | |
| 20260505232306 | 0 | 326 | 0.0 | 0.0 | 0.00 | 0.00 | 0.00 | 1017.9 | |
| 20260505231801 | 0 | 256 | 0.0 | 0.0 | 0.00 | 0.00 | 0.00 | 1018.0 | |
| 20260505231300 | 0 | 275 | 0.0 | 0.0 | 0.00 | 0.00 | 0.00 | 1017.8 | |
| 20260505230758 | 0 | 249 | 0.0 | 0.0 | 0.00 | 0.00 | 0.00 | 1017.9 | |
| 20260505230254 | 0 | 281 | 0.0 | 0.0 | 0.00 | 0.00 | 0.00 | 1017.9 | |
| 20260505225751 | 0 | 219 | 0.0 | 0.0 | 0.00 | 0.00 | 0.00 | 1018.1 | |
| 20260505225249 | 0 | 260 | 0.0 | 0.9 | 0.00 | 0.00 | 0.00 | 1017.9 | |
| 20260505224743 | 0 | 327 | 0.0 | 0.0 | 0.00 | 0.00 | 0.00 | 1017.7 | |
| 20260505224241 | 0 | 256 | 0.0 | 0.0 | 0.00 | 0.00 | 0.00 | 1018.4 | |
| 20260505223739 | 0 | 251 | 0.0 | 0.0 | 0.00 | 0.00 | 0.00 | 1017.8 | |
| 20260505223235 | 0 | 253 | 0.0 | 0.0 | 0.00 | 0.00 | 0.00 | 1018.0 | |
| 20260505222731 | 0 | 304 | 0.0 | 0.9 | 0.00 | 0.00 | 0.00 | 1018.0 | |
| 20260505222227 | 0 | 334 | 0.0 | 0.0 | 0.00 | 0.00 | 0.00 | 1018.1 | |
| 20260505221725 | 0 | 269 | 0.0 | 0.0 | 0.00 | 0.00 | 0.00 | 1018.0 | |
| 20260505221221 | 0 | 305 | 0.0 | 0.0 | 0.00 | 0.00 | 0.00 | 1018.2 | |
| 20260505220718 | 0 | 247 | 0.0 | 0.0 | 0.00 | 0.00 | 0.00 | 1017.9 | |
| 20260505220216 | 0 | 300 | 0.0 | 0.0 | 0.00 | 0.00 | 0.00 | 1017.9 | |
| 20260505215713 | 0 | 295 | 0.0 | 0.0 | 0.00 | 0.00 | 0.00 | 1018.1 | |
| 20260505215211 | 0 | 243 | 0.0 | 0.0 | 0.00 | 0.00 | 0.00 | 1018.2 | |
| 20260505214708 | 0 | 343 | 0.0 | 0.0 | 0.00 | 0.00 | 0.00 | 1017.9 | |
| 20260505214206 | 0 | 282 | 0.0 | 0.9 | 0.00 | 0.00 | 0.00 | 1017.9 | |
| 20260505213703 | 0 | 281 | 0.0 | 0.0 | 0.00 | 0.00 | 0.00 | 1017.8 | |
| 20260505213200 | 0 | 280 | 0.0 | 0.0 | 0.00 | 0.00 | 0.00 | 1017.7 | |
| 20260505212656 | 0 | 249 | 0.0 | 0.0 | 0.00 | 0.00 | 0.00 | 1017.5 | |
| 20260505212153 | 0 | 258 | 0.0 | 0.0 | 0.00 | 0.00 | 0.00 | 1017.7 | |
| 20260505211650 | 0 | 249 | 0.0 | 0.0 | 0.00 | 0.00 | 0.00 | 1017.7 | |
| 20260505211148 | 0 | 246 | 0.0 | 0.0 | 0.00 | 0.00 | 0.00 | 1017.8 | |
| 20260505210644 | 0 | 266 | 0.0 | 0.0 | 0.00 | 0.00 | 0.00 | 1017.8 | |
| 20260505210141 | 0 | 351 | 0.0 | 0.0 | 0.00 | 0.00 | 0.00 | 1017.5 | |
| 20260505205638 | 0 | 275 | 0.0 | 0.0 | 0.00 | 0.00 | 0.00 | 1017.5 | |
| 20260505205137 | 0 | 270 | 0.0 | 0.0 | 0.00 | 0.00 | 0.00 | 1017.7 | |
| 20260505204633 | 0 | 263 | 0.0 | 0.0 | 0.00 | 0.00 | 0.00 | 1017.5 | |
| 20260505204131 | 0 | 234 | 0.0 | 0.0 | 0.00 | 0.00 | 0.00 | 1017.5 | |
| 20260505203627 | 0 | 312 | 0.0 | 0.0 | 0.00 | 0.00 | 0.00 | 1017.5 | |
| 20260505203125 | 0 | 295 | 0.0 | 0.0 | 0.00 | 0.00 | 0.00 | 1017.5 | |
| 20260505202620 | 0 | 259 | 0.0 | 0.0 | 0.00 | 0.00 | 0.00 | 1017.4 | |
| 20260505202116 | 0 | 304 | 0.0 | 0.0 | 0.00 | 0.00 | 0.00 | 1017.5 | |
| 20260505201613 | 0 | 248 | 0.0 | 0.0 | 0.00 | 0.00 | 0.00 | 1017.3 | |
| 20260505201111 | 0 | 261 | 0.0 | 0.0 | 0.00 | 0.00 | 0.00 | 1017.2 | |
| 20260505200609 | 0 | 267 | 0.0 | 0.0 | 0.00 | 0.00 | 0.00 | 1017.5 | |
| 20260505200105 | 0 | 269 | 0.0 | 0.0 | 0.00 | 0.00 | 0.00 | 1017.5 | |
| 20260505195601 | 0 | 269 | 0.0 | 0.0 | 0.00 | 0.00 | 0.00 | 1017.5 | |
| 20260505195059 | 0 | 290 | 0.0 | 0.0 | 0.00 | 0.00 | 0.00 | 1017.6 | |
| 20260505194556 | 0 | 277 | 0.0 | 0.0 | 0.00 | 0.00 | 0.00 | 1017.6 | |
| 20260505194051 | 0 | 295 | 0.0 | 0.0 | 0.00 | 0.00 | 0.00 | 1017.6 | |
| 20260505193549 | 0 | 286 | 0.0 | 0.0 | 0.00 | 0.00 | 0.00 | 1017.6 | |
| 20260505193046 | 0 | 327 | 0.0 | 0.0 | 0.00 | 0.00 | 0.00 | 1017.6 | |
| 20260505192545 | 0 | 321 | 0.0 | 0.0 | 0.00 | 0.00 | 0.00 | 1017.9 | |
| 20260505192042 | 0 | 307 | 0.0 | 0.0 | 0.00 | 0.00 | 0.00 | 1017.6 | |
| 20260505191540 | 0 | 269 | 0.0 | 0.0 | 0.00 | 0.00 | 0.00 | 1017.9 | |
| 20260505191038 | 0 | 320 | 0.0 | 0.0 | 0.00 | 0.00 | 0.00 | 1017.7 | |
| 20260505190532 | 0 | 324 | 0.0 | 0.0 | 0.00 | 0.00 | 0.00 | 1017.8 | |
| 20260505190028 | 0 | 248 | 0.0 | 0.0 | 0.00 | 0.00 | 0.00 | 1017.8 | |
| 20260505185525 | 0 | 272 | 0.0 | 0.0 | 0.00 | 0.00 | 0.00 | 1017.9 | |
| 20260505185021 | 0 | 266 | 0.0 | 0.0 | 0.00 | 0.00 | 0.00 | 1017.7 | |
| 20260505184518 | 0 | 277 | 0.0 | 0.0 | 0.00 | 0.00 | 0.00 | 1017.8 | |
| 20260505184015 | 0 | 312 | 0.0 | 0.0 | 0.00 | 0.00 | 0.00 | 1017.9 | |
| 20260505183512 | 0 | 247 | 0.0 | 0.0 | 0.00 | 0.00 | 0.00 | 1018.1 | |
| 20260505183009 | 0 | 250 | 0.0 | 0.0 | 0.00 | 0.00 | 0.00 | 1017.8 | |
| 20260505182506 | 0 | 272 | 0.0 | 0.0 | 0.00 | 0.00 | 0.00 | 1017.8 | |
| 20260505182002 | 0 | 254 | 0.0 | 0.0 | 0.00 | 0.00 | 0.00 | 1017.9 | |
| 20260505181459 | 0 | 242 | 0.0 | 0.0 | 0.00 | 0.00 | 0.00 | 1017.9 | |
| 20260505180956 | 0 | 262 | 0.0 | 0.0 | 0.00 | 0.00 | 0.00 | 1017.8 | |
| 20260505180452 | 0 | 261 | 0.0 | 0.0 | 0.00 | 0.00 | 0.00 | 1017.8 | |
| 20260505175949 | 0 | 295 | 0.0 | 0.0 | 0.00 | 0.00 | 0.00 | 1017.8 | |
| 20260505175445 | 0 | 276 | 0.0 | 0.0 | 0.00 | 0.00 | 0.00 | 1017.5 | |
| 20260505174942 | 0 | 235 | 0.0 | 0.0 | 0.00 | 0.00 | 0.00 | 1017.8 | |
| 20260505174439 | 0 | 252 | 0.0 | 0.0 | 0.00 | 0.00 | 0.00 | 1017.4 | |
| 20260505173935 | 0 | 267 | 0.0 | 0.0 | 0.00 | 0.00 | 0.00 | 1017.6 | |
| 20260505173432 | 0 | 239 | 0.0 | 0.0 | 0.00 | 0.00 | 0.00 | 1017.5 | |
| 20260505172929 | 0 | 276 | 0.0 | 0.0 | 0.00 | 0.00 | 0.00 | 1017.4 | |
| 20260505172427 | 0 | 240 | 0.0 | 0.0 | 0.00 | 0.00 | 0.00 | 1017.7 | |
| 20260505171926 | 0 | 241 | 0.0 | 0.0 | 0.00 | 0.00 | 0.00 | 1017.7 | |
| 20260505171424 | 0 | 245 | 0.0 | 0.0 | 0.00 | 0.00 | 0.00 | 1017.6 | |
| 20260505170920 | 0 | 244 | 0.0 | 0.0 | 0.00 | 0.00 | 0.00 | 1017.7 | |
| 20260505170417 | 0 | 245 | 0.0 | 0.0 | 0.00 | 0.00 | 0.00 | 1017.4 | |
| 20260505165912 | 0 | 257 | 0.0 | 0.0 | 0.00 | 0.00 | 0.00 | 1017.5 | |
| 20260505165408 | 0 | 255 | 0.0 | 0.0 | 0.00 | 0.00 | 0.00 | 1017.5 | |
| 20260505164903 | 0 | 257 | 0.0 | 0.0 | 0.00 | 0.00 | 0.00 | 1017.4 | |
| 20260505164400 | 0 | 240 | 0.0 | 0.0 | 0.00 | 0.00 | 0.00 | 1017.7 | |
| 20260505163859 | 0 | 242 | 0.0 | 0.0 | 0.00 | 0.00 | 0.00 | 1017.6 | |
| 20260505163358 | 0 | 259 | 0.0 | 0.0 | 0.00 | 0.00 | 0.00 | 1017.5 | |
| 20260505162856 | 0 | 240 | 0.0 | 0.0 | 0.00 | 0.00 | 0.00 | 1017.5 | |
| 20260505162351 | 0 | 237 | 0.0 | 0.0 | 0.00 | 0.00 | 0.00 | 1017.6 | |
| 20260505161849 | 0 | 238 | 0.0 | 0.0 | 0.00 | 0.00 | 0.00 | 1017.7 | |
| 20260505161345 | 0 | 238 | 0.0 | 0.0 | 0.00 | 0.00 | 0.00 | 1017.6 | |
| 20260505160843 | 0 | 241 | 0.0 | 0.0 | 0.00 | 0.00 | 0.00 | 1017.5 | |
| 20260505160341 | 0 | 243 | 0.0 | 0.0 | 0.00 | 0.00 | 0.00 | 1017.6 | |
| 20260505153320 | 0 | 241 | 0.0 | 0.0 | 0.00 | 0.00 | 0.00 | 1017.6 | |
| 20260505152817 | 0 | 240 | 0.0 | 0.0 | 0.00 | 0.00 | 0.00 | 1017.6 | |
| 20260505152314 | 0 | 240 | 0.0 | 0.0 | 0.00 | 0.00 | 0.00 | 1017.5 | |
| 20260505151814 | 0 | 240 | 0.0 | 0.0 | 0.00 | 0.00 | 0.00 | 1017.4 | |
| 20260505151311 | 0 | 240 | 0.0 | 0.0 | 0.00 | 0.00 | 0.00 | 1017.4 | |
| 20260505150808 | 0 | 238 | 0.0 | 0.0 | 0.00 | 0.00 | 0.00 | 1017.3 | |
| 20260505150305 | 0 | 241 | 0.0 | 0.0 | 0.00 | 0.00 | 0.00 | 1017.5 |